Home   Weather   Tunis   Past weeks

Flag for Tunisia Past Weather in Tunis, Tunisia — Yesterday and Last 2 Weeks

77 °F

Passing clouds.

Feels Like: 79 °F
Forecast: 69 / 81 °F
Wind: 2 mph from Southeast

Location: Tunis-Carthage

Current Time: Oct 26, 2016 at 10:36:32 PM

Latest Report: Oct 26, 2016 at 10:00 PM

Visibility: N/A

Pressure: 30.09 "Hg

Humidity: 57%

Dew Point: 61 °F

Location of TunisLocation

Past Weather in Tunis — Graph


Tunis Temperature Yesterday

Maximum temperature yesterday: 86 °F (at 12:00 PM)
Minimum temperature yesterday: 68 °F (at 5:00 AM)
Average temperature yesterday: 76 °F

High & Low Weather Summary for the Past Weeks

High93 °F (Oct 26, 3:00 PM)100% (Oct 17, 5:00 AM)30.21 "Hg (Oct 17, 5:00 AM)
Low59 °F (Oct 18, 6:30 AM)28% (Oct 26, 1:30 PM)29.65 "Hg (Oct 14, 7:00 AM)
Average74 °F73%30.00 "Hg
* Reported Oct 11 9:00 PM — Oct 26 9:00 PM, Tunis, Weather by CustomWeather, © 2016

Note: Actual official high and low records may vary slightly from our data, if they occured in-between our weather recording intervals... More about our weather records


Tunis Weather History for the Previous 24 Hours

Scroll right to see more
Time TempWeatherWind HumidityBarometerVisibility
9:00 PM
Wed, Oct 26
73 °FPassing clouds.2 mph74%30.09 "Hg5 mi
8:30 PM73 °FPassing clouds.No wind74%30.09 "Hg5 mi
8:00 PM73 °FPassing clouds.No wind78%30.09 "Hg5 mi
7:30 PM75 °FPassing clouds.1 mph78%30.09 "Hg5 mi
7:00 PM75 °FPassing clouds.5 mph78%30.09 "Hg5 mi
6:30 PM77 °FPassing clouds.3 mph65%30.07 "Hg5 mi
6:00 PM81 °FPassing clouds.3 mph58%30.07 "Hg5 mi
5:30 PM82 °FPassing clouds.1 mph51%30.07 "Hg5 mi
5:00 PM84 °FPassing clouds.1 mph51%30.07 "HgN/A
4:30 PM86 °FPassing clouds.No wind49%30.07 "HgN/A
4:00 PM88 °FPassing clouds.3 mph43%30.07 "HgN/A
3:30 PM91 °FPassing clouds.3 mph36%30.07 "HgN/A
3:00 PM93 °FPassing clouds.2 mph30%30.07 "HgN/A
2:30 PM91 °FPassing clouds.1 mph30%30.07 "HgN/A
2:00 PM91 °FPassing clouds.5 mph28%30.07 "HgN/A
1:30 PM91 °FPassing clouds.6 mph28%30.07 "HgN/A
1:00 PM91 °FPassing clouds.5 mph30%30.09 "HgN/A
12:30 PM90 °FPassing clouds.5 mph33%30.09 "HgN/A
12:00 PM88 °FPassing clouds.7 mph35%30.12 "HgN/A
11:30 AM86 °FPassing clouds.6 mph35%30.12 "HgN/A
11:00 AM84 °FPassing clouds.7 mph37%30.12 "HgN/A
10:30 AM81 °FPassing clouds.7 mph42%30.12 "HgN/A
10:00 AM81 °FPassing clouds.7 mph45%30.12 "HgN/A
9:30 AM79 °FPassing clouds.5 mph51%30.12 "HgN/A
9:00 AM77 °FPassing clouds.5 mph61%30.12 "HgN/A
8:00 AM70 °FPassing clouds.3 mph94%30.12 "Hg4 mi
7:30 AM68 °FFog.3 mph100%30.12 "Hg3 mi
7:00 AM68 °FFog.2 mph100%30.09 "Hg3 mi
6:30 AM66 °FFog.2 mph94%30.09 "Hg3 mi
6:00 AM68 °FPassing clouds.2 mph100%30.09 "HgN/A
5:30 AM68 °FPassing clouds.3 mph94%30.09 "HgN/A
5:00 AM70 °FPassing clouds.2 mph94%30.09 "HgN/A
4:30 AM70 °FPassing clouds.3 mph94%30.09 "HgN/A
4:00 AM70 °FPassing clouds.2 mph94%30.09 "HgN/A
3:30 AM70 °FPassing clouds.2 mph94%30.09 "HgN/A
3:00 AM70 °FPassing clouds.2 mph94%30.09 "HgN/A
2:30 AM70 °FPassing clouds.2 mph100%30.12 "HgN/A
2:00 AM70 °FPassing clouds.2 mph100%30.12 "HgN/A
1:30 AM72 °FPassing clouds.2 mph94%30.12 "HgN/A
1:00 AM72 °FPassing clouds.3 mph94%30.12 "HgN/A
12:30 AM73 °FPassing clouds.3 mph94%30.15 "HgN/A
12:00 AM73 °FPassing clouds.3 mph94%30.15 "HgN/A
11:30 PM
Tue, Oct 25
72 °FPassing clouds.3 mph94%30.15 "HgN/A
11:00 PM72 °FPassing clouds.2 mph94%30.15 "HgN/A
10:30 PM72 °FPassing clouds.2 mph94%30.15 "HgN/A
10:00 PM72 °FPassing clouds.2 mph94%30.15 "HgN/A
Weather by CustomWeather, © 2016

See weather overviewHow to use our weather pages